| time (UTC) | temp C | wind direction | speed KPH | gust KPH | rain 1hr cm | rain 24hr cm | rain mn cm | humidity % | barometer mb |
| 20260507145533 | 14 | 268 | 17.7 | 27.4 | 0.00 | 0.00 | 0.00 | 59 | |
| 20260507145032 | 15 | 275 | 16.1 | 25.7 | 0.00 | 0.00 | 0.00 | 59 | |
| 20260507144531 | 15 | 264 | 16.1 | 25.7 | 0.00 | 0.00 | 0.00 | 56 | |
| 20260507144031 | 15 | 271 | 14.5 | 24.1 | 0.00 | 0.00 | 0.00 | 57 | |
| 20260507143529 | 14 | 297 | 16.1 | 24.1 | 0.00 | 0.00 | 0.00 | 57 | |
| 20260507143029 | 15 | 266 | 14.5 | 24.1 | 0.00 | 0.00 | 0.00 | 59 | |
| 20260507142528 | 15 | 252 | 14.5 | 27.4 | 0.00 | 0.00 | 0.00 | 59 | |
| 20260507142027 | 15 | 245 | 16.1 | 27.4 | 0.00 | 0.00 | 0.00 | 59 | |
| 20260507141526 | 15 | 258 | 14.5 | 24.1 | 0.00 | 0.00 | 0.00 | 59 | |
| 20260507141025 | 15 | 256 | 16.1 | 24.1 | 0.00 | 0.00 | 0.00 | 55 | |
| 20260507140523 | 15 | 263 | 11.3 | 20.9 | 0.00 | 0.00 | 0.00 | 54 | |
| 20260507140019 | 15 | 270 | 11.3 | 22.5 | 0.00 | 0.00 | 0.00 | 57 | |
| 20260507135518 | 15 | 265 | 14.5 | 25.7 | 0.00 | 0.00 | 0.00 | 57 | |
| 20260507135018 | 15 | 254 | 16.1 | 25.7 | 0.00 | 0.00 | 0.00 | 57 | |
| 20260507134514 | 15 | 271 | 16.1 | 30.6 | 0.00 | 0.00 | 0.00 | 59 | |
| 20260507134013 | 15 | 258 | 17.7 | 30.6 | 0.00 | 0.00 | 0.00 | 58 | |
| 20260507133512 | 15 | 264 | 14.5 | 27.4 | 0.00 | 0.00 | 0.00 | 55 | |
| 20260507133010 | 15 | 257 | 17.7 | 27.4 | 0.00 | 0.00 | 0.00 | 57 | |
| 20260507132509 | 15 | 268 | 16.1 | 27.4 | 0.00 | 0.00 | 0.00 | 55 | |
| 20260507132009 | 15 | 244 | 16.1 | 24.1 | 0.00 | 0.00 | 0.00 | 54 | |
| 20260507131508 | 15 | 264 | 12.9 | 24.1 | 0.00 | 0.00 | 0.00 | 54 | |
| 20260507131007 | 15 | 274 | 12.9 | 24.1 | 0.00 | 0.00 | 0.00 | 58 | |
| 20260507130506 | 15 | 269 | 14.5 | 29.0 | 0.00 | 0.00 | 0.00 | 59 | |
| 20260507130005 | 15 | 252 | 17.7 | 29.0 | 0.00 | 0.00 | 0.00 | 62 | |
| 20260507125504 | 15 | 270 | 16.1 | 29.0 | 0.00 | 0.00 | 0.00 | 61 | |
| 20260507125003 | 15 | 260 | 12.9 | 25.7 | 0.00 | 0.00 | 0.00 | 60 | |
| 20260507124502 | 15 | 251 | 14.5 | 24.1 | 0.00 | 0.00 | 0.00 | 62 | |
| 20260507123959 | 15 | 253 | 14.5 | 24.1 | 0.00 | 0.00 | 0.00 | 62 | |
| 20260507123458 | 14 | 267 | 17.7 | 25.7 | 0.00 | 0.00 | 0.00 | 63 | |
| 20260507122957 | 15 | 263 | 17.7 | 25.7 | 0.00 | 0.00 | 0.00 | 64 | |
| 20260507122456 | 14 | 259 | 14.5 | 27.4 | 0.00 | 0.00 | 0.00 | 65 | |
| 20260507121955 | 14 | 265 | 14.5 | 27.4 | 0.00 | 0.00 | 0.00 | 64 | |
| 20260507121454 | 14 | 257 | 12.9 | 24.1 | 0.00 | 0.00 | 0.00 | 66 | |
| 20260507120953 | 14 | 269 | 12.9 | 27.4 | 0.00 | 0.00 | 0.00 | 67 | |
| 20260507120453 | 14 | 259 | 17.7 | 29.0 | 0.00 | 0.00 | 0.00 | 67 | |
| 20260507115952 | 14 | 261 | 17.7 | 29.0 | 0.00 | 0.00 | 0.00 | 67 | |
| 20260507115451 | 14 | 262 | 17.7 | 29.0 | 0.00 | 0.00 | 0.00 | 67 | |
| 20260507114950 | 15 | 247 | 14.5 | 22.5 | 0.00 | 0.00 | 0.00 | 67 | |
| 20260507114449 | 15 | 259 | 16.1 | 24.1 | 0.00 | 0.00 | 0.00 | 66 | |
| 20260507113948 | 15 | 233 | 14.5 | 24.1 | 0.00 | 0.00 | 0.00 | 65 | |
| 20260507113447 | 15 | 261 | 14.5 | 24.1 | 0.00 | 0.00 | 0.00 | 61 | |
| 20260507112946 | 15 | 256 | 12.9 | 20.9 | 0.00 | 0.00 | 0.00 | 61 | |
| 20260507112443 | 15 | 260 | 11.3 | 20.9 | 0.00 | 0.00 | 0.00 | 60 | |
| 20260507111942 | 15 | 230 | 14.5 | 22.5 | 0.00 | 0.00 | 0.00 | 60 | |
| 20260507111441 | 15 | 248 | 11.3 | 20.9 | 0.00 | 0.00 | 0.00 | 61 | |
| 20260507110940 | 15 | 263 | 12.9 | 24.1 | 0.00 | 0.00 | 0.00 | 62 | |
| 20260507110439 | 15 | 264 | 11.3 | 24.1 | 0.00 | 0.00 | 0.00 | 62 | |
| 20260507105938 | 15 | 244 | 11.3 | 22.5 | 0.00 | 0.00 | 0.00 | 60 | |
| 20260507105437 | 15 | 255 | 9.7 | 24.1 | 0.00 | 0.00 | 0.00 | 60 | |
| 20260507104936 | 15 | 258 | 9.7 | 17.7 | 0.00 | 0.00 | 0.00 | 60 | |
| 20260507104436 | 15 | 239 | 6.4 | 14.5 | 0.00 | 0.00 | 0.00 | 60 | |
| 20260507103934 | 15 | 281 | 8.0 | 19.3 | 0.00 | 0.00 | 0.00 | 60 | |
| 20260507103429 | 15 | 279 | 9.7 | 19.3 | 0.00 | 0.00 | 0.00 | 63 | |
| 20260507102928 | 15 | 275 | 11.3 | 19.3 | 0.00 | 0.00 | 0.00 | 61 | |
| 20260507102427 | 15 | 271 | 9.7 | 20.9 | 0.00 | 0.00 | 0.00 | 62 | |
| 20260507101927 | 15 | 267 | 12.9 | 20.9 | 0.00 | 0.00 | 0.00 | 62 | |
| 20260507101426 | 15 | 255 | 12.9 | 19.3 | 0.00 | 0.00 | 0.00 | 62 | |
| 20260507100925 | 15 | 263 | 9.7 | 17.7 | 0.00 | 0.00 | 0.00 | 62 | |
| 20260507100424 | 15 | 250 | 12.9 | 17.7 | 0.00 | 0.00 | 0.00 | 63 | |
| 20260507095923 | 15 | 265 | 12.9 | 19.3 | 0.00 | 0.00 | 0.00 | 64 | |
| 20260507095422 | 15 | 272 | 9.7 | 19.3 | 0.00 | 0.00 | 0.00 | 62 | |
| 20260507094919 | 15 | 239 | 9.7 | 20.9 | 0.00 | 0.00 | 0.00 | 63 | |
| 20260507094418 | 15 | 250 | 16.1 | 20.9 | 0.00 | 0.00 | 0.00 | 62 | |
| 20260507093917 | 15 | 262 | 12.9 | 17.7 | 0.00 | 0.00 | 0.00 | 60 | |
| 20260507093416 | 15 | 261 | 9.7 | 16.1 | 0.00 | 0.00 | 0.00 | 59 | |
| 20260507092913 | 16 | 265 | 12.9 | 16.1 | 0.00 | 0.00 | 0.00 | 59 | |
| 20260507092412 | 16 | 260 | 11.3 | 16.1 | 0.00 | 0.00 | 0.00 | 56 | |
| 20260507091910 | 17 | 238 | 8.0 | 16.1 | 0.00 | 0.00 | 0.00 | 53 | |
| 20260507091409 | 17 | 224 | 4.8 | 11.3 | 0.00 | 0.00 | 0.00 | 51 | |
| 20260507090908 | 16 | 208 | 4.8 | 9.7 | 0.00 | 0.00 | 0.00 | 49 | |
| 20260507090407 | 16 | 252 | 4.8 | 11.3 | 0.00 | 0.00 | 0.00 | 47 | |
| 20260507085907 | 16 | 257 | 8.0 | 11.3 | 0.00 | 0.00 | 0.00 | 46 | |
| 20260507085406 | 17 | 241 | 8.0 | 11.3 | 0.00 | 0.00 | 0.00 | 48 | |
| 20260507084905 | 17 | 274 | 4.8 | 9.7 | 0.00 | 0.00 | 0.00 | 48 | |
| 20260507084401 | 18 | 294 | 4.8 | 8.0 | 0.00 | 0.00 | 0.00 | 45 | |
| 20260507083901 | 18 | 166 | 3.2 | 11.3 | 0.00 | 0.00 | 0.00 | 46 | |
| 20260507083400 | 18 | 127 | 3.2 | 9.7 | 0.00 | 0.00 | 0.00 | 45 | |
| 20260507082859 | 17 | 203 | 3.2 | 9.7 | 0.00 | 0.00 | 0.00 | 44 | |
| 20260507082358 | 17 | 248 | 4.8 | 8.0 | 0.00 | 0.00 | 0.00 | 46 | |
| 20260507081854 | 17 | 256 | 3.2 | 9.7 | 0.00 | 0.00 | 0.00 | 44 | |
| 20260507081351 | 17 | 270 | 4.8 | 9.7 | 0.00 | 0.00 | 0.00 | 43 | |
| 20260507080850 | 17 | 268 | 3.2 | 9.7 | 0.00 | 0.00 | 0.00 | 41 | |
| 20260507080349 | 17 | 257 | 4.8 | 9.7 | 0.00 | 0.00 | 0.00 | 43 | |
| 20260507075848 | 18 | 315 | 6.4 | 9.7 | 0.00 | 0.00 | 0.00 | 39 | |
| 20260507075347 | 18 | 43 | 6.4 | 11.3 | 0.00 | 0.00 | 0.00 | 42 | |
| 20260507074847 | 18 | 43 | 4.8 | 11.3 | 0.00 | 0.00 | 0.00 | 40 | |
| 20260507074343 | 18 | 41 | 3.2 | 8.0 | 0.00 | 0.00 | 0.00 | 42 | |
| 20260507073842 | 17 | 312 | 1.6 | 8.0 | 0.00 | 0.00 | 0.00 | 44 | |
| 20260507073341 | 18 | 35 | 4.8 | 9.7 | 0.00 | 0.00 | 0.00 | 42 | |
| 20260507072840 | 17 | 42 | 4.8 | 9.7 | 0.00 | 0.00 | 0.00 | 42 | |
| 20260507072340 | 18 | 57 | 4.8 | 9.7 | 0.00 | 0.00 | 0.00 | 43 | |
| 20260507071839 | 18 | 346 | 3.2 | 9.7 | 0.00 | 0.00 | 0.00 | 45 | |
| 20260507071338 | 18 | 27 | 3.2 | 9.7 | 0.00 | 0.00 | 0.00 | 46 | |
| 20260507070837 | 18 | 36 | 3.2 | 9.7 | 0.00 | 0.00 | 0.00 | 45 | |
| 20260507070336 | 19 | 159 | 3.2 | 4.8 | 0.00 | 0.00 | 0.00 | 44 | |
| 20260507065835 | 18 | 125 | 1.6 | 4.8 | 0.00 | 0.00 | 0.00 | 45 | |
| 20260507065334 | 17 | 255 | 1.6 | 9.7 | 0.00 | 0.00 | 0.00 | 49 | |
| 20260507064833 | 17 | 325 | 1.6 | 9.7 | 0.00 | 0.00 | 0.00 | 49 | |
| 20260507064333 | 17 | 317 | 3.2 | 6.4 | 0.00 | 0.00 | 0.00 | 46 | |
| 20260507063832 | 18 | 254 | 1.6 | 4.8 | 0.00 | 0.00 | 0.00 | 45 | |
| 20260507063331 | 17 | 170 | 1.6 | 6.4 | 0.00 | 0.00 | 0.00 | 47 | |
| 20260507062830 | 16 | 167 | 0.0 | 6.4 | 0.00 | 0.00 | 0.00 | 50 | |
| 20260507062329 | 16 | 288 | 1.6 | 4.8 | 0.00 | 0.00 | 0.00 | 42 | |
| 20260507061828 | 16 | 223 | 1.6 | 8.0 | 0.00 | 0.00 | 0.00 | 44 | |
| 20260507061327 | 16 | 131 | 4.8 | 8.0 | 0.00 | 0.00 | 0.00 | 43 | |
| 20260507060827 | 16 | 144 | 4.8 | 8.0 | 0.00 | 0.00 | 0.00 | 45 | |
| 20260507060326 | 16 | 24 | 1.6 | 6.4 | 0.00 | 0.00 | 0.00 | 47 | |
| 20260507055825 | 15 | 33 | 3.2 | 6.4 | 0.00 | 0.00 | 0.00 | 47 | |
| 20260507055324 | 15 | 41 | 4.8 | 6.4 | 0.00 | 0.00 | 0.00 | 48 | |
| 20260507054823 | 15 | 50 | 4.8 | 6.4 | 0.00 | 0.00 | 0.00 | 48 | |
| 20260507054322 | 15 | 23 | 4.8 | 6.4 | 0.00 | 0.00 | 0.00 | 50 | |
| 20260507053822 | 14 | 24 | 4.8 | 6.4 | 0.00 | 0.00 | 0.00 | 54 | |
| 20260507053317 | 13 | 44 | 6.4 | 6.4 | 0.00 | 0.00 | 0.00 | 57 | |
| 20260507052816 | 11 | 13 | 3.2 | 4.8 | 0.00 | 0.00 | 0.00 | 61 | |
| 20260507052315 | 10 | 19 | 3.2 | 6.4 | 0.00 | 0.00 | 0.00 | 63 | |
| 20260507051814 | 10 | 317 | 4.8 | 8.0 | 0.00 | 0.00 | 0.00 | 65 | |
| 20260507051314 | 10 | 299 | 4.8 | 9.7 | 0.00 | 0.00 | 0.00 | 65 | |
| 20260507050813 | 10 | 315 | 6.4 | 11.3 | 0.00 | 0.00 | 0.00 | 66 | |
| 20260507050312 | 10 | 315 | 6.4 | 11.3 | 0.00 | 0.00 | 0.00 | 66 | |
| 20260507045811 | 10 | 315 | 8.0 | 9.7 | 0.00 | 0.00 | 0.00 | 66 | |
| 20260507045307 | 10 | 315 | 8.0 | 11.3 | 0.00 | 0.00 | 0.00 | 67 | |
| 20260507044807 | 10 | 315 | 9.7 | 12.9 | 0.00 | 0.00 | 0.00 | 67 | |
| 20260507044306 | 10 | 315 | 9.7 | 12.9 | 0.00 | 0.00 | 0.00 | 67 | |
| 20260507043805 | 10 | 315 | 11.3 | 12.9 | 0.00 | 0.00 | 0.00 | 67 | |
| 20260507043304 | 10 | 315 | 11.3 | 14.5 | 0.00 | 0.00 | 0.00 | 67 | |
| 20260507042803 | 10 | 316 | 12.9 | 16.1 | 0.00 | 0.00 | 0.00 | 68 | |
| 20260507042306 | 10 | 316 | 11.3 | 17.7 | 0.00 | 0.00 | 0.00 | 68 | |
| 20260507041801 | 10 | 316 | 14.5 | 17.7 | 0.00 | 0.00 | 0.00 | 67 | |
| 20260507041300 | 10 | 316 | 14.5 | 19.3 | 0.00 | 0.00 | 0.00 | 67 | |
| 20260507040759 | 10 | 317 | 14.5 | 19.3 | 0.00 | 0.00 | 0.00 | 67 | |
| 20260507040256 | 10 | 317 | 17.7 | 20.9 | 0.00 | 0.00 | 0.00 | 66 | |
| 20260507035755 | 10 | 315 | 17.7 | 20.9 | 0.00 | 0.00 | 0.00 | 66 | |
| 20260507035254 | 10 | 317 | 16.1 | 20.9 | 0.00 | 0.00 | 0.00 | 66 | |
| 20260507034753 | 10 | 318 | 17.7 | 24.1 | 0.00 | 0.00 | 0.00 | 65 | |
| 20260507034253 | 10 | 318 | 19.3 | 24.1 | 0.00 | 0.00 | 0.00 | 64 | |
| 20260507033749 | 10 | 321 | 19.3 | 24.1 | 0.00 | 0.00 | 0.00 | 63 | |
| 20260507033248 | 10 | 334 | 17.7 | 24.1 | 0.00 | 0.00 | 0.00 | 62 | |
| 20260507032747 | 10 | 329 | 20.9 | 25.7 | 0.00 | 0.00 | 0.00 | 62 | |
| 20260507032247 | 10 | 330 | 20.9 | 25.7 | 0.00 | 0.00 | 0.00 | 62 | |
| 20260507031746 | 10 | 330 | 19.3 | 24.1 | 0.00 | 0.00 | 0.00 | 62 | |
| 20260507031245 | 10 | 335 | 17.7 | 27.4 | 0.00 | 0.00 | 0.00 | 62 | |
| 20260507030744 | 10 | 335 | 19.3 | 27.4 | 0.00 | 0.00 | 0.00 | 62 | |
| 20260507030241 | 10 | 330 | 19.3 | 25.7 | 0.00 | 0.00 | 0.00 | 61 | |
| 20260507025740 | 10 | 318 | 20.9 | 25.7 | 0.00 | 0.00 | 0.00 | 61 | |
| 20260507025239 | 10 | 322 | 19.3 | 25.7 | 0.00 | 0.00 | 0.00 | 61 | |
| 20260507024738 | 10 | 320 | 19.3 | 24.1 | 0.00 | 0.00 | 0.00 | 61 | |
| 20260507024238 | 10 | 318 | 20.9 | 24.1 | 0.00 | 0.00 | 0.00 | 61 | |
| 20260507023737 | 10 | 319 | 19.3 | 25.7 | 0.00 | 0.00 | 0.00 | 62 | |
| 20260507023236 | 10 | 319 | 19.3 | 29.0 | 0.00 | 0.00 | 0.00 | 61 | |
| 20260507022735 | 10 | 318 | 22.5 | 29.0 | 0.00 | 0.00 | 0.00 | 61 | |
| 20260507022234 | 10 | 317 | 22.5 | 27.4 | 0.00 | 0.00 | 0.00 | 60 | |
| 20260507021733 | 10 | 318 | 20.9 | 25.7 | 0.00 | 0.00 | 0.00 | 60 | |
| 20260507021232 | 10 | 319 | 19.3 | 25.7 | 0.00 | 0.00 | 0.00 | 61 | |
| 20260507020732 | 10 | 317 | 20.9 | 24.1 | 0.00 | 0.00 | 0.00 | 60 | |
| 20260507020231 | 10 | 319 | 17.7 | 20.9 | 0.00 | 0.00 | 0.00 | 60 | |
| 20260507015730 | 10 | 317 | 17.7 | 20.9 | 0.00 | 0.00 | 0.00 | 60 | |
| 20260507015229 | 11 | 317 | 17.7 | 20.9 | 0.00 | 0.00 | 0.00 | 61 | |
| 20260507014726 | 11 | 317 | 16.1 | 20.9 | 0.00 | 0.00 | 0.00 | 59 | |
| 20260507014225 | 11 | 316 | 17.7 | 20.9 | 0.00 | 0.00 | 0.00 | 58 | |
| 20260507013721 | 11 | 317 | 17.7 | 19.3 | 0.00 | 0.00 | 0.00 | 58 | |
| 20260507013220 | 11 | 316 | 16.1 | 19.3 | 0.00 | 0.00 | 0.00 | 58 | |
| 20260507012719 | 11 | 317 | 16.1 | 17.7 | 0.00 | 0.00 | 0.00 | 59 | |
| 20260507012219 | 11 | 317 | 14.5 | 17.7 | 0.00 | 0.00 | 0.00 | 59 | |
| 20260507011718 | 11 | 316 | 14.5 | 20.9 | 0.00 | 0.00 | 0.00 | 60 | |
| 20260507011217 | 11 | 318 | 16.1 | 20.9 | 0.00 | 0.00 | 0.00 | 63 | |
| 20260507010716 | 11 | 317 | 16.1 | 20.9 | 0.00 | 0.00 | 0.00 | 59 | |
| 20260507010215 | 11 | 316 | 16.1 | 19.3 | 0.00 | 0.00 | 0.00 | 58 | |
| 20260507005712 | 11 | 316 | 14.5 | 16.1 | 0.00 | 0.00 | 0.00 | 60 | |
| 20260507005211 | 11 | 315 | 14.5 | 16.1 | 0.00 | 0.00 | 0.00 | 61 | |
| 20260507004710 | 11 | 317 | 14.5 | 16.1 | 0.00 | 0.00 | 0.00 | 57 | |
| 20260507004209 | 11 | 315 | 12.9 | 16.1 | 0.00 | 0.00 | 0.00 | 55 | |
| 20260507003708 | 11 | 316 | 14.5 | 16.1 | 0.00 | 0.00 | 0.00 | 55 | |
| 20260507003207 | 11 | 315 | 14.5 | 17.7 | 0.00 | 0.00 | 0.00 | 56 | |
| 20260507002707 | 11 | 315 | 14.5 | 17.7 | 0.00 | 0.00 | 0.00 | 57 | |
| 20260507002206 | 11 | 315 | 14.5 | 16.1 | 0.00 | 0.00 | 0.00 | 54 | |
| 20260507001705 | 11 | 315 | 14.5 | 17.7 | 0.00 | 0.00 | 0.00 | 54 | |
| 20260507001204 | 11 | 314 | 16.1 | 20.9 | 0.00 | 0.00 | 0.00 | 54 | |
| 20260507000703 | 11 | 273 | 19.3 | 19.3 | 0.00 | 0.00 | 0.00 | 57 | |
| 20260507000204 | 11 | 297 | 16.1 | 20.9 | 0.00 | 0.00 | 0.00 | 54 | |
| 20260506235701 | 11 | 288 | 17.7 | 20.9 | 0.00 | 0.00 | 0.00 | 54 | |
| 20260506235201 | 11 | 295 | 16.1 | 16.1 | 0.00 | 0.00 | 0.00 | 54 | |
| 20260506234657 | 11 | 292 | 14.5 | 17.7 | 0.00 | 0.00 | 0.00 | 53 | |
| 20260506234156 | 11 | 271 | 16.1 | 17.7 | 0.00 | 0.00 | 0.00 | 53 | |
| 20260506233655 | 11 | 270 | 16.1 | 17.7 | 0.00 | 0.00 | 0.00 | 54 | |
| 20260506233155 | 11 | 271 | 16.1 | 16.1 | 0.00 | 0.00 | 0.00 | 54 | |
| 20260506232654 | 11 | 270 | 14.5 | 16.1 | 0.00 | 0.00 | 0.00 | 54 | |
| 20260506232153 | 11 | 272 | 14.5 | 16.1 | 0.00 | 0.00 | 0.00 | 55 | |
| 20260506231649 | 11 | 312 | 12.9 | 17.7 | 0.00 | 0.00 | 0.00 | 55 | |
| 20260506231148 | 11 | 307 | 12.9 | 17.7 | 0.00 | 0.00 | 0.00 | 54 | |
| 20260506230648 | 11 | 281 | 14.5 | 19.3 | 0.00 | 0.00 | 0.00 | 54 | |
| 20260506230147 | 11 | 271 | 16.1 | 19.3 | 0.00 | 0.00 | 0.00 | 55 | |
| 20260506225646 | 11 | 270 | 16.1 | 17.7 | 0.00 | 0.00 | 0.00 | 55 | |
| 20260506225142 | 11 | 270 | 14.5 | 17.7 | 0.00 | 0.00 | 0.00 | 56 | |
| 20260506224642 | 11 | 268 | 12.9 | 16.1 | 0.00 | 0.00 | 0.00 | 55 | |
| 20260506224141 | 11 | 268 | 14.5 | 14.5 | 0.00 | 0.00 | 0.00 | 55 | |
| 20260506223640 | 11 | 270 | 12.9 | 14.5 | 0.00 | 0.00 | 0.00 | 54 | |
| 20260506223139 | 11 | 270 | 12.9 | 16.1 | 0.00 | 0.00 | 0.00 | 54 | |
| 20260506222638 | 11 | 260 | 12.9 | 16.1 | 0.00 | 0.00 | 0.00 | 55 | |
| 20260506222137 | 12 | 250 | 12.9 | 16.1 | 0.00 | 0.00 | 0.00 | 55 | |
| 20260506221636 | 12 | 239 | 12.9 | 16.1 | 0.00 | 0.00 | 0.00 | 55 | |
| 20260506221135 | 11 | 225 | 12.9 | 16.1 | 0.00 | 0.00 | 0.00 | 56 | |
| 20260506220635 | 12 | 228 | 11.3 | 16.1 | 0.00 | 0.00 | 0.00 | 56 | |
| 20260506220134 | 12 | 225 | 12.9 | 16.1 | 0.00 | 0.00 | 0.00 | 56 | |
| 20260506215633 | 12 | 226 | 14.5 | 16.1 | 0.00 | 0.00 | 0.00 | 56 | |
| 20260506215132 | 11 | 227 | 11.3 | 14.5 | 0.00 | 0.00 | 0.00 | 55 | |
| 20260506214631 | 11 | 227 | 6.4 | 8.0 | 0.00 | 0.00 | 0.00 | 54 | |
| 20260506214130 | 11 | 268 | 3.2 | 4.8 | 0.00 | 0.00 | 0.00 | 55 | |
| 20260506213630 | 11 | 230 | 4.8 | 4.8 | 0.00 | 0.00 | 0.00 | 56 | |
| 20260506213126 | 10 | 254 | 0.0 | 1.6 | 0.00 | 0.00 | 0.00 | 56 | |
| 20260506212622 | 10 | 315 | 0.0 | 3.2 | 0.00 | 0.00 | 0.00 | 56 | |
| 20260506212121 | 11 | 315 | 0.0 | 4.8 | 0.00 | 0.00 | 0.00 | 56 | |
| 20260506211620 | 11 | 272 | 3.2 | 4.8 | 0.00 | 0.00 | 0.00 | 55 | |
| 20260506211119 | 11 | 282 | 3.2 | 4.8 | 0.00 | 0.00 | 0.00 | 54 | |
| 20260506210619 | 11 | 270 | 4.8 | 6.4 | 0.00 | 0.00 | 0.00 | 55 | |
| 20260506210118 | 11 | 270 | 4.8 | 6.4 | 0.00 | 0.00 | 0.00 | 56 | |
| 20260506205617 | 11 | 270 | 4.8 | 4.8 | 0.00 | 0.00 | 0.00 | 57 | |
| 20260506205116 | 11 | 270 | 3.2 | 6.4 | 0.00 | 0.00 | 0.00 | 60 | |
| 20260506204616 | 11 | 270 | 4.8 | 6.4 | 0.00 | 0.00 | 0.00 | 63 | |
| 20260506204114 | 11 | 270 | 4.8 | 6.4 | 0.00 | 0.00 | 0.00 | 63 | |
| 20260506203613 | 11 | 229 | 4.8 | 6.4 | 0.00 | 0.00 | 0.00 | 65 | |
| 20260506203112 | 11 | 225 | 4.8 | 6.4 | 0.00 | 0.00 | 0.00 | 64 | |
| 20260506202611 | 11 | 230 | 4.8 | 6.4 | 0.00 | 0.00 | 0.00 | 61 | |
| 20260506202110 | 11 | 225 | 4.8 | 6.4 | 0.00 | 0.00 | 0.00 | 62 | |
| 20260506201609 | 11 | 225 | 4.8 | 6.4 | 0.00 | 0.00 | 0.00 | 67 | |
| 20260506201108 | 11 | 225 | 4.8 | 8.0 | 0.00 | 0.00 | 0.00 | 71 | |
| 20260506200605 | 11 | 181 | 6.4 | 9.7 | 0.00 | 0.00 | 0.00 | 72 | |
| 20260506200104 | 11 | 180 | 8.0 | 9.7 | 0.00 | 0.00 | 0.00 | 71 | |
| 20260506195603 | 11 | 180 | 6.4 | 8.0 | 0.00 | 0.00 | 0.00 | 71 | |
| 20260506195102 | 11 | 180 | 6.4 | 6.4 | 0.00 | 0.00 | 0.00 | 74 | |
| 20260506194559 | 11 | 180 | 4.8 | 6.4 | 0.00 | 0.00 | 0.00 | 75 | |
| 20260506194058 | 11 | 224 | 4.8 | 6.4 | 0.00 | 0.00 | 0.00 | 75 | |
| 20260506193557 | 11 | 225 | 4.8 | 6.4 | 0.00 | 0.00 | 0.00 | 75 | |
| 20260506193056 | 11 | 224 | 4.8 | 6.4 | 0.00 | 0.00 | 0.00 | 75 | |
| 20260506192555 | 11 | 225 | 4.8 | 6.4 | 0.00 | 0.00 | 0.00 | 76 | |
| 20260506192054 | 11 | 225 | 4.8 | 4.8 | 0.00 | 0.00 | 0.00 | 77 | |
| 20260506191553 | 11 | 225 | 1.6 | 3.2 | 0.00 | 0.00 | 0.00 | 77 | |
| 20260506191053 | 11 | 225 | 1.6 | 4.8 | 0.00 | 0.00 | 0.00 | 75 | |
| 20260506190552 | 11 | 196 | 3.2 | 4.8 | 0.00 | 0.00 | 0.00 | 75 | |
| 20260506190051 | 11 | 211 | 3.2 | 6.4 | 0.00 | 0.00 | 0.00 | 73 | |
| 20260506185549 | 11 | 225 | 4.8 | 6.4 | 0.00 | 0.00 | 0.00 | 74 | |
| 20260506185049 | 11 | 193 | 4.8 | 4.8 | 0.00 | 0.00 | 0.00 | 73 | |
| 20260506184548 | 12 | 191 | 4.8 | 6.4 | 0.00 | 0.00 | 0.00 | 71 | |
| 20260506184047 | 12 | 180 | 4.8 | 6.4 | 0.00 | 0.00 | 0.00 | 69 | |
| 20260506183545 | 12 | 180 | 3.2 | 6.4 | 0.00 | 0.00 | 0.00 | 67 | |
| 20260506183044 | 12 | 183 | 4.8 | 6.4 | 0.00 | 0.00 | 0.00 | 66 | |
| 20260506182543 | 13 | 178 | 3.2 | 4.8 | 0.00 | 0.00 | 0.00 | 67 | |
| 20260506182042 | 13 | 200 | 3.2 | 4.8 | 0.00 | 0.00 | 0.00 | 67 | |
| 20260506181542 | 13 | 225 | 3.2 | 6.4 | 0.00 | 0.00 | 0.00 | 67 | |
| 20260506181041 | 14 | 225 | 4.8 | 8.0 | 0.00 | 0.00 | 0.00 | 64 | |
| 20260506180540 | 15 | 211 | 4.8 | 8.0 | 0.00 | 0.00 | 0.00 | 59 | |
| 20260506180039 | 15 | 205 | 6.4 | 8.0 | 0.00 | 0.00 | 0.00 | 61 | |
| 20260506175538 | 15 | 225 | 6.4 | 8.0 | 0.00 | 0.00 | 0.00 | 60 | |
| 20260506175037 | 15 | 237 | 6.4 | 9.7 | 0.00 | 0.00 | 0.00 | 63 | |
| 20260506174537 | 15 | 226 | 6.4 | 9.7 | 0.00 | 0.00 | 0.00 | 63 | |
| 20260506174036 | 15 | 227 | 6.4 | 11.3 | 0.00 | 0.00 | 0.00 | 66 | |
| 20260506173535 | 15 | 230 | 6.4 | 11.3 | 0.00 | 0.00 | 0.00 | 71 | |
| 20260506173034 | 15 | 254 | 6.4 | 9.7 | 0.00 | 0.00 | 0.00 | 73 | |
| 20260506172533 | 15 | 262 | 6.4 | 12.9 | 0.00 | 0.00 | 0.00 | 75 | |
| 20260506172032 | 16 | 265 | 8.0 | 12.9 | 0.00 | 0.00 | 0.00 | 73 | |
| 20260506171531 | 16 | 254 | 6.4 | 12.9 | 0.00 | 0.00 | 0.00 | 72 | |
| 20260506171030 | 16 | 257 | 6.4 | 12.9 | 0.00 | 0.00 | 0.00 | 73 | |
| 20260506170529 | 16 | 270 | 6.4 | 12.9 | 0.00 | 0.00 | 0.00 | 76 | |
| 20260506170028 | 16 | 238 | 6.4 | 11.3 | 0.00 | 0.00 | 0.00 | 77 | |
| 20260506165527 | 16 | 260 | 3.2 | 14.5 | 0.00 | 0.00 | 0.00 | 77 | |
| 20260506165027 | 16 | 269 | 6.4 | 12.9 | 0.00 | 0.00 | 0.00 | 78 | |
| 20260506164523 | 16 | 251 | 8.0 | 14.5 | 0.00 | 0.00 | 0.00 | 79 | |
| 20260506164022 | 16 | 263 | 8.0 | 16.1 | 0.00 | 0.00 | 0.00 | 79 | |
| 20260506163521 | 15 | 263 | 11.3 | 16.1 | 0.00 | 0.00 | 0.00 | 79 | |
| 20260506163020 | 15 | 265 | 9.7 | 17.7 | 0.00 | 0.00 | 0.00 | 81 | |
| 20260506162519 | 15 | 266 | 8.0 | 19.3 | 0.00 | 0.00 | 0.00 | 80 | |
| 20260506162018 | 16 | 260 | 12.9 | 19.3 | 0.00 | 0.00 | 0.00 | 80 | |
| 20260506161515 | 16 | 255 | 9.7 | 17.7 | 0.00 | 0.00 | 0.00 | 80 | |
| 20260506161014 | 16 | 278 | 9.7 | 17.7 | 0.00 | 0.00 | 0.00 | 78 | |
| 20260506160513 | 16 | 289 | 6.4 | 14.5 | 0.00 | 0.00 | 0.00 | 80 | |
| 20260506160012 | 16 | 267 | 9.7 | 14.5 | 0.00 | 0.00 | 0.00 | 81 | |
| 20260506155511 | 16 | 227 | 4.8 | 14.5 | 0.00 | 0.00 | 0.00 | 84 | |
| 20260506155010 | 16 | 287 | 8.0 | 17.7 | 0.00 | 0.00 | 0.00 | 85 | |
| 20260506154508 | 15 | 248 | 9.7 | 17.7 | 0.00 | 0.00 | 0.00 | 86 | |
| 20260506154008 | 15 | 272 | 11.3 | 16.1 | 0.00 | 0.00 | 0.00 | 86 | |
| 20260506153507 | 15 | 264 | 11.3 | 17.7 | 0.00 | 0.00 | 0.00 | 88 | |
| 20260506153006 | 15 | 272 | 9.7 | 19.3 | 0.00 | 0.00 | 0.00 | 89 | |
| 20260506152505 | 14 | 287 | 9.7 | 17.7 | 0.00 | 0.00 | 0.00 | 90 | |
| 20260506152001 | 14 | 247 | 9.7 | 17.7 | 0.00 | 0.00 | 0.00 | 91 | |
| 20260506151501 | 14 | 254 | 11.3 | 17.7 | 0.00 | 0.00 | 0.00 | 91 | |
| 20260506151000 | 14 | 255 | 6.4 | 17.7 | 0.00 | 0.00 | 0.00 | 91 | |
| 20260506150459 | 13 | 275 | 9.7 | 24.1 | 0.00 | 0.00 | 0.00 | 91 | |
| 20260506145955 | 13 | 273 | 11.3 | 24.1 | 0.00 | 0.00 | 0.00 | 92 |